User: anonymous   Login
Location: Blue Mountain Vista Observatory
(40.6992°N, 75.9422°W)
Time: 18:09:10
(UTC-04:00)
Language:

CZ-4C R/B - Orbit

View from above orbital plane
View from above orbital plane
View from above satellite
View from above satellite

Ground track
Ground track

The orbit data is extracted from the following two-line orbital elements,

1 36416U 10009D   14304.13605452  .00000039  00000-0  11452-3 0  7747
2 36416 063.4487 316.2463 0293397 359.8757 000.2161 13.69428579232894
Epoch (UTC): 31 October 2014 03:15:55
Eccentricity: 0.0293397
inclination: 63.4487°
perigee height: 785 km
apogee height: 1218 km
right ascension of ascending node: 316.2463°
argument of perigee: 359.8757°
revolutions per day: 13.69428579
mean anomaly at epoch: 0.2161°
orbit number at epoch: 23289

The dashed part of the orbit path shows where the satellite is in the earth's shadow,  

DLR